TimeEDT,TemperatureF,Dew PointF,Humidity,Sea Level PressureIn,VisibilityMPH,Wind Direction,Wind SpeedMPH,Gust SpeedMPH,PrecipitationIn,Events,Conditions,WindDirDegrees,DateUTC
12:17 AM,21.0,16.5,83,29.96,10.0,West,8.1,-,N/A,,Overcast,260,2013-03-17 04:17:00
12:36 AM,21.0,16.3,82,29.96,10.0,West,6.9,-,N/A,,Overcast,260,2013-03-17 04:36:00
12:56 AM,20.8,15.3,79,29.96,10.0,West,6.9,-,N/A,,Mostly Cloudy,270,2013-03-17 04:56:00
1:17 AM,20.7,14.5,77,29.97,10.0,West,6.9,20.7,N/A,,Scattered Clouds,280,2013-03-17 05:17:00
1:36 AM,19.4,16.7,89,29.99,0.8,NW,9.2,19.6,N/A,Snow,Light Snow,320,2013-03-17 05:36:00
1:57 AM,18.3,15.8,90,30.00,2.5,NNW,8.1,-,N/A,Snow,Light Snow,330,2013-03-17 05:57:00
2:17 AM,17.6,13.8,85,30.01,3.0,NNW,6.9,20.7,N/A,Snow,Light Snow,330,2013-03-17 06:17:00
2:36 AM,16.3,11.3,81,30.02,10.0,NNW,8.1,16.1,N/A,,Scattered Clouds,330,2013-03-17 06:36:00
2:57 AM,15.4,10.9,82,30.03,10.0,NNW,10.4,17.3,N/A,,Clear,340,2013-03-17 06:57:00
3:16 AM,14.7,10.4,83,30.06,10.0,North,9.2,16.1,N/A,,Scattered Clouds,350,2013-03-17 07:16:00
3:37 AM,13.1,5.9,73,30.07,10.0,North,8.1,16.1,N/A,,Clear,350,2013-03-17 07:37:00
3:57 AM,12.2,3.9,69,30.08,10.0,NNW,9.2,-,N/A,,Clear,340,2013-03-17 07:57:00
4:16 AM,11.7,3.2,69,30.10,10.0,North,6.9,-,N/A,,Clear,350,2013-03-17 08:16:00
4:37 AM,10.9,3.2,71,30.12,10.0,NNW,5.8,-,N/A,,Clear,340,2013-03-17 08:37:00
4:56 AM,10.4,3.2,73,30.13,10.0,NNW,6.9,-,N/A,,Clear,340,2013-03-17 08:56:00
5:16 AM,9.7,3.0,74,30.14,10.0,NNW,3.5,-,N/A,,Clear,330,2013-03-17 09:16:00
5:37 AM,9.3,2.5,74,30.15,10.0,NNW,4.6,-,N/A,,Clear,330,2013-03-17 09:37:00
5:56 AM,8.6,1.9,74,30.16,10.0,NNW,3.5,-,N/A,,Clear,330,2013-03-17 09:56:00
6:37 AM,8.1,0.5,71,30.19,10.0,NNW,4.6,-,N/A,,Clear,340,2013-03-17 10:37:00
6:56 AM,7.5,-0.4,70,30.20,10.0,North,4.6,-,N/A,,Clear,350,2013-03-17 10:56:00
7:16 AM,6.6,-1.3,70,30.20,10.0,NNW,3.5,-,N/A,,Clear,340,2013-03-17 11:16:00
7:36 AM,6.8,-1.8,68,30.21,10.0,NNW,3.5,-,N/A,,Clear,340,2013-03-17 11:36:00
7:56 AM,5.9,-1.7,71,30.23,10.0,North,3.5,-,N/A,,Clear,350,2013-03-17 11:56:00
8:17 AM,5.5,-0.8,75,30.23,10.0,NNW,3.5,-,N/A,,Clear,340,2013-03-17 12:17:00
8:36 AM,6.6,-1.1,71,30.24,10.0,North,4.6,-,N/A,,Clear,360,2013-03-17 12:36:00
8:57 AM,6.8,-1.3,69,30.25,10.0,North,4.6,-,N/A,,Clear,360,2013-03-17 12:57:00
9:17 AM,7.3,-1.3,68,30.26,10.0,North,4.6,-,N/A,,Clear,10,2013-03-17 13:17:00
9:36 AM,7.5,-1.5,67,30.26,10.0,North,5.8,-,N/A,,Clear,360,2013-03-17 13:36:00
9:57 AM,8.1,-2.0,64,30.27,10.0,North,5.8,-,N/A,,Clear,360,2013-03-17 13:57:00
10:16 AM,8.6,-1.8,63,30.28,10.0,North,5.8,-,N/A,,Clear,350,2013-03-17 14:16:00
10:36 AM,9.1,-1.5,62,30.28,10.0,North,4.6,-,N/A,,Clear,360,2013-03-17 14:36:00
10:57 AM,10.2,-1.1,60,30.28,10.0,NNE,4.6,-,N/A,,Clear,20,2013-03-17 14:57:00
11:16 AM,11.1,-1.5,57,30.29,10.0,North,5.8,-,N/A,,Clear,350,2013-03-17 15:16:00
11:36 AM,11.1,-2.0,56,30.30,10.0,North,4.6,-,N/A,,Clear,350,2013-03-17 15:36:00
11:57 AM,11.8,-4.7,48,30.30,10.0,Calm,Calm,-,N/A,,Clear,0,2013-03-17 15:57:00
12:16 PM,12.2,-3.8,49,30.31,10.0,North,4.6,-,N/A,,Clear,350,2013-03-17 16:16:00
12:36 PM,12.6,-3.3,49,30.32,10.0,NE,3.5,-,N/A,,Clear,50,2013-03-17 16:36:00
12:56 PM,13.5,-2.4,49,30.32,10.0,North,3.5,-,N/A,,Clear,10,2013-03-17 16:56:00
1:16 PM,14.4,-1.1,50,30.31,10.0,WNW,5.8,-,N/A,,Clear,300,2013-03-17 17:16:00
1:36 PM,15.1,-0.8,50,30.31,10.0,NNE,3.5,-,N/A,,Clear,20,2013-03-17 17:36:00
1:56 PM,16.0,-0.2,49,30.32,10.0,West,4.6,-,N/A,,Clear,260,2013-03-17 17:56:00
2:17 PM,16.5,0.3,49,30.32,10.0,NW,4.6,-,N/A,,Clear,320,2013-03-17 18:17:00
2:36 PM,16.3,-0.9,47,30.31,10.0,Calm,Calm,-,N/A,,Clear,0,2013-03-17 18:36:00
2:56 PM,17.2,-1.3,44,30.31,10.0,WSW,3.5,-,N/A,,Clear,240,2013-03-17 18:56:00
3:17 PM,18.3,0.3,45,30.29,10.0,Calm,Calm,-,N/A,,Clear,0,2013-03-17 19:17:00
3:36 PM,18.9,1.2,46,30.29,10.0,West,3.5,-,N/A,,Clear,260,2013-03-17 19:36:00
3:57 PM,18.1,2.1,50,30.28,10.0,Calm,Calm,-,N/A,,Clear,0,2013-03-17 19:57:00
4:17 PM,18.7,3.7,52,30.28,10.0,West,4.6,-,N/A,,Clear,280,2013-03-17 20:17:00
4:36 PM,19.2,3.2,50,30.28,10.0,Calm,Calm,-,N/A,,Clear,0,2013-03-17 20:36:00
4:57 PM,18.7,2.1,49,30.27,10.0,Calm,Calm,-,N/A,,Clear,0,2013-03-17 20:57:00
5:16 PM,19.8,3.2,49,30.27,10.0,WSW,3.5,-,N/A,,Clear,240,2013-03-17 21:16:00
5:36 PM,19.0,3.6,51,30.27,10.0,Calm,Calm,-,N/A,,Clear,0,2013-03-17 21:36:00
5:57 PM,18.5,2.3,49,30.27,10.0,Calm,Calm,-,N/A,,Clear,0,2013-03-17 21:57:00
6:16 PM,18.9,2.8,50,30.28,10.0,Calm,Calm,-,N/A,,Clear,0,2013-03-17 22:16:00
6:36 PM,18.9,2.8,50,30.27,10.0,Calm,Calm,-,N/A,,Clear,0,2013-03-17 22:36:00
6:57 PM,18.3,0.3,45,30.26,10.0,Calm,Calm,-,N/A,,Clear,0,2013-03-17 22:57:00
7:16 PM,17.2,1.8,51,30.26,10.0,Calm,Calm,-,N/A,,Clear,0,2013-03-17 23:16:00
7:36 PM,16.3,2.7,55,30.26,10.0,Calm,Calm,-,N/A,,Clear,0,2013-03-17 23:36:00
7:57 PM,14.9,2.3,57,30.26,10.0,Calm,Calm,-,N/A,,Clear,0,2013-03-17 23:57:00
8:16 PM,12.4,1.8,63,30.27,10.0,Calm,Calm,-,N/A,,Clear,0,2013-03-18 00:16:00
8:37 PM,12.6,3.4,67,30.26,10.0,Calm,Calm,-,N/A,,Clear,0,2013-03-18 00:37:00
8:57 PM,11.3,3.7,72,30.27,10.0,Calm,Calm,-,N/A,,Clear,0,2013-03-18 00:57:00
9:16 PM,12.0,4.5,72,30.27,10.0,Calm,Calm,-,N/A,,Clear,0,2013-03-18 01:16:00
9:37 PM,11.7,4.8,74,30.27,10.0,Calm,Calm,-,N/A,,Clear,0,2013-03-18 01:37:00
9:57 PM,12.0,3.7,69,30.27,10.0,ESE,3.5,-,N/A,,Clear,110,2013-03-18 01:57:00
10:16 PM,10.2,3.4,74,30.27,10.0,ESE,3.5,-,N/A,,Clear,110,2013-03-18 02:16:00
10:37 PM,13.1,5.5,72,30.25,10.0,ESE,3.5,-,N/A,,Clear,110,2013-03-18 02:37:00
10:56 PM,12.4,5.0,72,30.26,10.0,Calm,Calm,-,N/A,,Clear,0,2013-03-18 02:56:00
11:16 PM,13.1,4.8,70,30.25,10.0,East,3.5,-,N/A,,Clear,100,2013-03-18 03:16:00
11:36 PM,13.5,5.0,69,30.25,10.0,ESE,5.8,-,N/A,,Clear,110,2013-03-18 03:36:00
11:56 PM,13.1,5.0,70,30.24,10.0,ESE,4.6,-,N/A,,Clear,120,2013-03-18 03:56:00